Gran Canaria > ESTACION METEOROLÓGICA Arucas

DATOS ACTUALES Online

Ultima actulizacion 34 minutos

16.8 ºC

Temperatura

78

Humedad (%)

963.44

Presión (mb)

0

Precipitación (mm)

12.3 NW

Viento (Km/h)

DATOS DIARIOS

Temperatura últimas 24 horas (ºC)

Humedad últimas 24 horas (%)

Presión atmosférica últimas 24 horas (mb)

Precipitaciones últimas 23 horas (mm)

Viento últimas 24 horas (Km/h)

Hora Temperatura (°C) ºC Precipitación (mm) mm Presión (mb) mb Humedad (%) % Viento (Km/h) km/h
29 - 01:00 15.9 0 964 80 16.2 NW
29 - 02:00 15.9 0 964 81 8.9 NW
29 - 03:00 15.8 0 963 80 11.3 NW
29 - 04:00 16 0 963 80 6.9 NW
29 - 05:00 16 0 963 82 11.1 NW
29 - 06:00 15.8 0 963 77 11.7 W
29 - 07:00 16.1 0 963 76 6.9 W
29 - 08:00 17 0 964 76 3.6 NO
29 - 09:00 17.3 0 964 74 9.5 NO
29 - 10:00 18.9 0 964 69 11.7 N
29 - 11:00 18.9 0 964 69 23.5 NO
29 - 12:00 19.1 0 964 72 24.2 NW
29 - 13:00 18.5 0 963 73 27.6 NW
29 - 14:00 18.3 0 963 71 23.7 N
29 - 15:00 18.3 0 963 74 22.2 N
29 - 16:00 17.9 0 963 76 19.6 N
29 - 17:00 17.7 0 963 75 17 N
29 - 18:00 17.6 0 963 74 18 NW
29 - 19:00 17.7 0 963 74 19 NW
29 - 20:00 17.2 0 963 76 16 NW
29 - 21:00 17 0 963 77 14.8 NW
29 - 22:00 16.8 0 963 80 11.8 NW
29 - 23:00 16.9 0 964 77 12.6 NW
30 - 00:00 16.8 0 963 78 12.3 NW
30 - 01:00
Apalmet utiliza cookies propias y de terceros para mejorar la usabilidad y la experiencia web. Política de cookies.